Time,TemperatureF,DewpointF,PressureIn,WindDirection,WindDirectionDegrees,WindSpeedMPH,WindSpeedGustMPH,Humidity,HourlyPrecipIn,Conditions,Clouds,dailyrainin,SolarRadiationWatts/m^2,SoftwareType,DateUTC
2013-05-17 00:03:00,69.0,35.0,-100.00,East,87,14.0,25.0,28,0.00,,,0.00,0.000000,,2013-05-17 05:03:00,
2013-05-17 00:11:00,67.0,34.0,-100.00,East,92,15.0,22.0,29,0.00,,,0.00,0.000000,,2013-05-17 05:11:00,
2013-05-17 00:32:00,67.0,34.0,-100.00,East,92,15.0,22.0,29,0.00,,,0.00,0.000000,,2013-05-17 05:32:00,
2013-05-17 00:43:00,67.0,34.0,-100.00,East,92,15.0,22.0,29,0.00,,,0.00,0.000000,,2013-05-17 05:43:00,
2013-05-17 00:52:00,67.0,34.0,-100.00,East,92,15.0,22.0,29,0.00,,,0.00,0.000000,,2013-05-17 05:52:00,
2013-05-17 01:02:00,67.0,34.0,-100.00,East,92,15.0,22.0,29,0.00,,,0.00,0.000000,,2013-05-17 06:02:00,
2013-05-17 01:11:00,65.0,31.0,-100.00,East,91,12.0,21.0,28,0.00,,,0.00,0.000000,,2013-05-17 06:11:00,
2013-05-17 01:42:00,65.0,31.0,-100.00,East,91,12.0,21.0,28,0.00,,,0.00,0.000000,,2013-05-17 06:42:00,
2013-05-17 01:52:00,65.0,31.0,-100.00,East,91,12.0,21.0,28,0.00,,,0.00,0.000000,,2013-05-17 06:52:00,
2013-05-17 02:02:00,65.0,31.0,-100.00,East,91,12.0,21.0,28,0.00,,,0.00,0.000000,,2013-05-17 07:02:00,
2013-05-17 02:11:00,63.0,36.0,-100.00,East,87,9.0,17.0,36,0.00,,,0.00,0.000000,,2013-05-17 07:11:00,
2013-05-17 02:43:00,63.0,36.0,-100.00,East,87,9.0,17.0,36,0.00,,,0.00,0.000000,,2013-05-17 07:43:00,
2013-05-17 02:53:00,63.0,36.0,-100.00,East,87,9.0,17.0,36,0.00,,,0.00,0.000000,,2013-05-17 07:53:00,
2013-05-17 03:02:00,63.0,36.0,-100.00,East,87,9.0,17.0,36,0.00,,,0.00,0.000000,,2013-05-17 08:02:00,
2013-05-17 03:11:00,63.0,38.0,-100.00,East,89,9.0,14.0,39,0.00,,,0.00,0.000000,,2013-05-17 08:11:00,
2013-05-17 03:43:00,63.0,38.0,-100.00,East,89,9.0,14.0,39,0.00,,,0.00,0.000000,,2013-05-17 08:43:00,
2013-05-17 03:52:00,63.0,38.0,-100.00,East,89,9.0,14.0,39,0.00,,,0.00,0.000000,,2013-05-17 08:52:00,
2013-05-17 04:02:00,63.0,38.0,-100.00,East,89,9.0,14.0,39,0.00,,,0.00,0.000000,,2013-05-17 09:02:00,
2013-05-17 04:11:00,62.0,37.0,-100.00,East,95,10.0,16.0,39,0.00,,,0.00,0.000000,,2013-05-17 09:11:00,
2013-05-17 04:33:00,62.0,37.0,-100.00,East,95,10.0,16.0,39,0.00,,,0.00,0.000000,,2013-05-17 09:33:00,
2013-05-17 04:42:00,62.0,37.0,-100.00,East,95,10.0,16.0,39,0.00,,,0.00,0.000000,,2013-05-17 09:42:00,
2013-05-17 04:53:00,62.0,37.0,-100.00,East,95,10.0,16.0,39,0.00,,,0.00,0.000000,,2013-05-17 09:53:00,
2013-05-17 05:03:00,62.0,37.0,-100.00,East,95,10.0,16.0,39,0.00,,,0.00,0.000000,,2013-05-17 10:03:00,
2013-05-17 05:11:00,62.0,42.0,-100.00,ESE,110,11.0,18.0,48,0.00,,,0.00,0.000000,,2013-05-17 10:11:00,
2013-05-17 05:42:00,62.0,42.0,-100.00,ESE,110,11.0,18.0,48,0.00,,,0.00,0.000000,,2013-05-17 10:42:00,
2013-05-17 05:54:00,62.0,42.0,-100.00,ESE,110,11.0,18.0,48,0.00,,,0.00,0.000000,,2013-05-17 10:54:00,
2013-05-17 06:02:00,62.0,42.0,-100.00,ESE,110,11.0,18.0,48,0.00,,,0.00,0.000000,,2013-05-17 11:02:00,
2013-05-17 06:11:00,59.0,53.0,-100.00,ESE,112,13.0,21.0,80,0.00,,,0.00,0.000000,,2013-05-17 11:11:00,
2013-05-17 06:34:00,59.0,53.0,-100.00,ESE,112,13.0,21.0,80,0.00,,,0.00,0.000000,,2013-05-17 11:34:00,
2013-05-17 07:03:00,59.0,53.0,-100.00,ESE,112,13.0,21.0,80,0.00,,,0.00,0.000000,,2013-05-17 12:03:00,
2013-05-17 07:11:00,57.0,55.0,-100.00,ESE,104,12.0,21.0,93,0.01,,,0.01,5.000000,,2013-05-17 12:11:00,
2013-05-17 07:33:00,57.0,55.0,-100.00,ESE,104,12.0,21.0,93,0.01,,,0.01,5.000000,,2013-05-17 12:33:00,
2013-05-17 07:43:00,57.0,55.0,-100.00,ESE,104,12.0,21.0,93,0.01,,,0.01,5.000000,,2013-05-17 12:43:00,
2013-05-17 07:53:00,57.0,55.0,-100.00,ESE,104,12.0,21.0,93,0.01,,,0.01,5.000000,,2013-05-17 12:53:00,
2013-05-17 08:03:00,57.0,55.0,-100.00,ESE,104,12.0,21.0,93,0.01,,,0.01,5.000000,,2013-05-17 13:03:00,
2013-05-17 08:11:00,56.0,55.0,-100.00,East,93,11.0,19.0,97,0.02,,,0.03,24.000000,,2013-05-17 13:11:00,
2013-05-17 08:33:00,56.0,55.0,-100.00,East,93,11.0,19.0,97,0.02,,,0.03,24.000000,,2013-05-17 13:33:00,
2013-05-17 08:42:00,56.0,55.0,-100.00,East,93,11.0,19.0,97,0.02,,,0.03,24.000000,,2013-05-17 13:42:00,
2013-05-17 08:52:00,56.0,55.0,-100.00,East,93,11.0,19.0,97,0.02,,,0.03,24.000000,,2013-05-17 13:52:00,
2013-05-17 09:02:00,56.0,55.0,-100.00,East,93,11.0,19.0,97,0.02,,,0.03,24.000000,,2013-05-17 14:02:00,
2013-05-17 09:11:00,56.0,55.0,-100.00,East,86,11.0,16.0,95,0.00,,,0.03,59.000000,,2013-05-17 14:11:00,
2013-05-17 09:43:00,56.0,55.0,-100.00,East,86,11.0,16.0,95,0.00,,,0.03,59.000000,,2013-05-17 14:43:00,
2013-05-17 09:53:00,56.0,55.0,-100.00,East,86,11.0,16.0,95,0.00,,,0.03,59.000000,,2013-05-17 14:53:00,
2013-05-17 10:03:00,56.0,55.0,-100.00,East,86,11.0,16.0,95,0.00,,,0.03,59.000000,,2013-05-17 15:03:00,
2013-05-17 10:11:00,57.0,55.0,-100.00,East,94,11.0,18.0,92,0.00,,,0.03,123.000000,,2013-05-17 15:11:00,
2013-05-17 10:47:00,57.0,55.0,-100.00,East,94,11.0,18.0,92,0.00,,,0.03,123.000000,,2013-05-17 15:47:00,
2013-05-17 10:57:00,57.0,55.0,-100.00,East,94,11.0,18.0,92,0.00,,,0.03,123.000000,,2013-05-17 15:57:00,
2013-05-17 11:07:00,57.0,55.0,-100.00,East,94,11.0,18.0,92,0.00,,,0.03,123.000000,,2013-05-17 16:07:00,
2013-05-17 11:11:00,58.0,54.0,-100.00,East,97,12.0,17.0,88,0.00,,,0.03,156.000000,,2013-05-17 16:11:00,
2013-05-17 11:37:00,58.0,54.0,-100.00,East,97,12.0,17.0,88,0.00,,,0.03,156.000000,,2013-05-17 16:37:00,
2013-05-17 11:50:00,58.0,54.0,-100.00,East,97,12.0,17.0,88,0.00,,,0.03,156.000000,,2013-05-17 16:50:00,
2013-05-17 11:56:00,58.0,54.0,-100.00,East,97,12.0,17.0,88,0.00,,,0.03,156.000000,,2013-05-17 16:56:00,
2013-05-17 12:08:00,58.0,54.0,-100.00,East,97,12.0,17.0,88,0.00,,,0.03,156.000000,,2013-05-17 17:08:00,
2013-05-17 12:11:00,56.0,54.0,-100.00,ESE,102,10.0,16.0,94,0.03,,,0.06,129.000000,,2013-05-17 17:11:00,
2013-05-17 12:40:00,56.0,-99.9,-100.00,ESE,102,10.0,16.0,94,0.03,,,0.06,129.000000,,2013-05-17 17:40:00,
2013-05-17 12:49:00,56.0,54.0,-100.00,ESE,102,10.0,16.0,94,0.03,,,0.06,129.000000,,2013-05-17 17:49:00,
2013-05-17 13:00:00,56.0,-99.9,-100.00,ESE,102,10.0,16.0,94,0.03,,,0.06,129.000000,,2013-05-17 18:00:00,
2013-05-17 13:09:00,56.0,54.0,-100.00,ESE,102,10.0,16.0,94,0.03,,,0.06,129.000000,,2013-05-17 18:09:00,
2013-05-17 13:11:00,56.0,55.0,-100.00,East,93,10.0,15.0,96,0.03,,,0.09,119.000000,,2013-05-17 18:11:00,
2013-05-17 13:50:00,-999.0,-99.9,-100.00,East,93,10.0,15.0,96,0.03,,,0.09,119.000000,,2013-05-17 18:50:00,
2013-05-17 14:00:00,56.0,-99.9,-100.00,East,93,10.0,15.0,96,0.03,,,0.09,119.000000,,2013-05-17 19:00:00,
2013-05-17 14:10:00,56.0,55.0,-100.00,East,93,10.0,15.0,96,0.03,,,0.09,119.000000,,2013-05-17 19:10:00,
2013-05-17 14:11:00,56.0,55.0,-100.00,East,95,11.0,17.0,96,0.00,,,0.09,119.000000,,2013-05-17 19:11:00,
2013-05-17 14:40:00,56.0,55.0,-100.00,East,95,11.0,17.0,96,0.00,,,0.09,119.000000,,2013-05-17 19:40:00,
2013-05-17 14:51:00,56.0,55.0,-100.00,East,95,11.0,17.0,96,0.00,,,0.09,119.000000,,2013-05-17 19:51:00,
2013-05-17 15:01:00,-999.0,-99.9,-100.00,East,95,11.0,17.0,96,0.00,,,0.09,119.000000,,2013-05-17 20:01:00,
2013-05-17 15:09:00,56.0,55.0,-100.00,East,95,11.0,17.0,96,0.00,,,0.09,119.000000,,2013-05-17 20:09:00,
2013-05-17 15:11:00,56.0,55.0,-100.00,East,87,12.0,16.0,96,0.01,,,0.10,71.000000,,2013-05-17 20:11:00,
2013-05-17 15:50:00,56.0,55.0,-100.00,East,87,12.0,16.0,96,0.01,,,0.10,71.000000,,2013-05-17 20:50:00,
2013-05-17 15:58:00,56.0,55.0,-100.00,East,87,12.0,16.0,96,0.01,,,0.10,71.000000,,2013-05-17 20:58:00,
2013-05-17 16:07:00,56.0,55.0,-100.00,East,87,12.0,16.0,96,0.01,,,0.10,71.000000,,2013-05-17 21:07:00,
2013-05-17 16:11:00,58.0,56.0,-100.00,East,95,14.0,21.0,93,0.02,,,0.12,243.000000,,2013-05-17 21:11:00,
2013-05-17 16:39:00,58.0,56.0,-100.00,East,95,14.0,21.0,93,0.02,,,0.12,243.000000,,2013-05-17 21:39:00,
2013-05-17 16:49:00,58.0,56.0,-100.00,East,95,14.0,21.0,93,0.02,,,0.12,243.000000,,2013-05-17 21:49:00,
2013-05-17 16:58:00,58.0,56.0,-100.00,East,95,14.0,21.0,93,0.02,,,0.12,243.000000,,2013-05-17 21:58:00,
2013-05-17 17:07:00,58.0,56.0,-100.00,East,95,14.0,21.0,93,0.02,,,0.12,243.000000,,2013-05-17 22:07:00,
2013-05-17 17:11:00,58.0,55.0,-100.00,East,90,14.0,22.0,91,0.00,,,0.12,269.000000,,2013-05-17 22:11:00,
2013-05-17 17:38:00,58.0,55.0,-100.00,East,90,14.0,22.0,91,0.00,,,0.12,269.000000,,2013-05-17 22:38:00,
2013-05-17 17:47:00,58.0,55.0,-100.00,East,90,14.0,22.0,91,0.00,,,0.12,269.000000,,2013-05-17 22:47:00,
2013-05-17 17:55:00,58.0,55.0,-100.00,East,90,14.0,22.0,91,0.00,,,0.12,269.000000,,2013-05-17 22:55:00,
2013-05-17 18:04:00,58.0,55.0,-100.00,East,90,14.0,22.0,91,0.00,,,0.12,269.000000,,2013-05-17 23:04:00,
2013-05-17 18:11:00,58.0,56.0,-100.00,East,88,12.0,24.0,92,0.00,,,0.12,242.000000,,2013-05-17 23:11:00,
2013-05-17 18:38:00,58.0,56.0,-100.00,East,88,12.0,24.0,92,0.00,,,0.12,242.000000,,2013-05-17 23:38:00,
2013-05-17 18:47:00,58.0,56.0,-100.00,East,88,12.0,24.0,92,0.00,,,0.12,242.000000,,2013-05-17 23:47:00,
2013-05-17 18:54:00,58.0,56.0,-100.00,East,88,12.0,24.0,92,0.00,,,0.12,242.000000,,2013-05-17 23:54:00,
2013-05-17 19:02:00,58.0,56.0,-100.00,East,88,12.0,24.0,92,0.00,,,0.12,242.000000,,2013-05-18 00:02:00,
2013-05-17 19:11:00,58.0,56.0,-100.00,East,90,13.0,19.0,94,0.00,,,0.12,105.000000,,2013-05-18 00:11:00,
2013-05-17 19:34:00,58.0,56.0,-100.00,East,90,13.0,19.0,94,0.00,,,0.12,105.000000,,2013-05-18 00:34:00,
2013-05-17 19:45:00,58.0,56.0,-100.00,East,90,13.0,19.0,94,0.00,,,0.12,105.000000,,2013-05-18 00:45:00,
2013-05-17 19:54:00,58.0,56.0,-100.00,East,90,13.0,19.0,94,0.00,,,0.12,105.000000,,2013-05-18 00:54:00,
2013-05-17 20:03:00,58.0,56.0,-100.00,East,90,13.0,19.0,94,0.00,,,0.12,105.000000,,2013-05-18 01:03:00,
2013-05-17 20:11:00,56.0,55.0,-100.00,East,84,13.0,19.0,96,0.00,,,0.12,23.000000,,2013-05-18 01:11:00,
2013-05-17 20:32:00,56.0,55.0,-100.00,East,84,13.0,19.0,96,0.00,,,0.12,23.000000,,2013-05-18 01:32:00,
2013-05-17 20:43:00,56.0,55.0,-100.00,East,84,13.0,19.0,96,0.00,,,0.12,23.000000,,2013-05-18 01:43:00,
2013-05-17 20:52:00,56.0,55.0,-100.00,East,84,13.0,19.0,96,0.00,,,0.12,23.000000,,2013-05-18 01:52:00,
2013-05-17 21:02:00,56.0,55.0,-100.00,East,84,13.0,19.0,96,0.00,,,0.12,23.000000,,2013-05-18 02:02:00,
2013-05-17 21:11:00,55.0,54.0,-100.00,East,93,14.0,21.0,98,0.00,,,0.12,3.000000,,2013-05-18 02:11:00,
2013-05-17 21:43:00,55.0,54.0,-100.00,East,93,14.0,21.0,98,0.00,,,0.12,3.000000,,2013-05-18 02:43:00,
2013-05-17 21:54:00,55.0,54.0,-100.00,East,93,14.0,21.0,98,0.00,,,0.12,3.000000,,2013-05-18 02:54:00,
2013-05-17 22:02:00,55.0,54.0,-100.00,East,93,14.0,21.0,98,0.00,,,0.12,3.000000,,2013-05-18 03:02:00,
2013-05-17 22:11:00,55.0,55.0,-100.00,East,98,12.0,20.0,99,0.00,,,0.12,0.000000,,2013-05-18 03:11:00,
2013-05-17 22:33:00,55.0,55.0,-100.00,East,98,12.0,20.0,99,0.00,,,0.12,0.000000,,2013-05-18 03:33:00,
2013-05-17 22:43:00,55.0,55.0,-100.00,East,98,12.0,20.0,99,0.00,,,0.12,0.000000,,2013-05-18 03:43:00,
2013-05-17 22:53:00,55.0,55.0,-100.00,East,98,12.0,20.0,99,0.00,,,0.12,0.000000,,2013-05-18 03:53:00,
2013-05-17 23:03:00,55.0,55.0,-100.00,East,98,12.0,20.0,99,0.00,,,0.12,0.000000,,2013-05-18 04:03:00,
2013-05-17 23:11:00,56.0,56.0,-100.00,East,99,13.0,21.0,99,0.00,,,0.12,0.000000,,2013-05-18 04:11:00,
2013-05-17 23:33:00,56.0,56.0,-100.00,East,99,13.0,21.0,99,0.00,,,0.12,0.000000,,2013-05-18 04:33:00,
2013-05-17 23:43:00,56.0,56.0,-100.00,East,99,13.0,21.0,99,0.00,,,0.12,0.000000,,2013-05-18 04:43:00,
2013-05-17 23:52:00,56.0,56.0,-100.00,East,99,13.0,21.0,99,0.00,,,0.12,0.000000,,2013-05-18 04:52:00,